Showing default

TELSTAR 19V, 43562

Orbit data source: Space-Track

TELSTAR 19V, 43562 is a payload satellite owned by Telesat/Skynet (CA) in GEO that was launched on Sun, 22 Jul 2018 UTC via an FALCON 9 launch vehicle from the Air Force Eastern Test Range (AFETR). Payload-class satellites include a variety of spacecraft equipped with specific instruments for various scientific and technological missions. These include communications satellites like Starlink; space stations such as the ISS; scientific satellites like the Hubble; Earth observation satellites from companies like Planet Labs, Umbra, and HawkEye 360; GPS; miniature CubeSats for education and research; and military/defense satellites.

Loading next visibility...
Identifier
43562, 2018-059A
Orbit
GEO
Last TLE update
1 day ago
Origin
Manufacturer
Maxar SSL
Mission
Operational Commercial Communications
Bus & Motor
LS-1300, R-4D
Mass
7,075 kg wet, ~2,000 kg dry
Launch date (UTC)
2018-07-22 (7 years ago)
Launch vehicle
FALCON 9
Launch site
Air Force Eastern Test Range (AFETR)
Object type
Payload
Rocket body
Debris
Shape & HBR
Box + 2 Pan, 26.1 m
Radar Cross Section
120.644 m², Large (>1 m²)

Expand to show TLE details & history

TLE from 1 day ago
0 TELSTAR 19V
1 43562U 18059A   25181.55536988 -.00000280  00000-0  00000+0 0  9999
2 43562   0.0401 194.5811 0002801 286.2040 294.9913  1.00270768 25644
Epoch: 2025-06-30T13:19Z
TLE epoch observation values (Epoch: 2025-06-30T13:19:43.957Z)
Latitude
-0.01446°
Longitude
-63.03458°
Altitude
35,781.335 km
Speed
3.075 km/s
True Right ascension
03h 43m 02s
True Declination
0° 00' 52"
Sunlit
Object was in daylight at epoch
Visualization orbit readout
Latitude
-0.00782°
Longitude
8.07639°
Altitude
35,774.724 km
Speed
3.076 km/s
Apparent Right ascension
08h 46m 59s
Apparent Declination
-6° 01' 11"
Sunlit
Object is in daylight
Visualization observer readout
Local Sidereal Time
05:39:03
Azimuth
125.35° SE
Elevation
26.941°
Doppler factor
1
Orbital elements
Apogee altitude
35,799.761 km
Perigee altitude
35,776.14 km
Semi-major axis
42,166.087 km
Eccentricity
0.00028
Inclination
0.0401°
RAAN
194.5811°
Arg. of periapsis
286.204°
True anomaly
Unknown
Mean anomaly
294.9913°
Eccentric anomaly
Unknown
Mean motion
0.25067 °/min
Orbital period
1,436.16 mins
BSTAR
0
Loading historical data...
43562 neighbors
Loading maneuver chart data...
Loading SW <> Apogee altitude chart data...
Loading historical data...
Loading historical data...
Loading historical data...
Loading historical data...
Loading historical data...
Loading historical data...
Loading historical data...
Other satellites on launch #59 in the year 2018 (2018-07-22 UTC)

TELSTAR 19V Visibility forecast

Observer location: undefined°, undefined°

Span
Click to sort rows by Start time (UTC) header in descending order
Start Az.
Max El. time (UTC)
Max El. Az.
Max El.
End time (UTC)
End Az.
1440 mins2025-07-01 17:59:22.168Z125.364° SE2025-07-02 08:45:22.168Z125.391° SE24.39°2025-07-02 17:59:22.168Z125.376° SE
|